KI5IZM-13 Weather Reports


Display with metric or nautical units.
time (UTC)temp
F
wind
direction
speed
MPH
gust
MPH
rain 1hr
in
rain 24hr
in
rain mn
in
humidity
%
barometer
mb
20260509094525 69 140 0.0 1.0 0.00 0.01 0.01 96 1010.8
20260509093024 69 208 0.0 2.0 0.00 0.01 0.01 96 1010.9
20260509091527 69 156 0.0 1.0 0.00 0.01 0.01 95 1010.9
20260509090041 69 169 0.0 4.0 0.00 0.01 0.01 95 1010.6
20260509084524 69 155 0.0 2.0 0.00 0.01 0.01 95 1010.9
20260509083041 69 161 1.0 4.0 0.00 0.01 0.01 95 1011.0
20260509081529 69 194 0.0 1.0 0.00 0.01 0.01 95 1011.5
20260509080033 69 352 0.0 1.0 0.00 0.01 0.01 95 1011.6
20260509074528 69 355 0.0 1.0 0.01 0.01 0.01 95 1011.9
20260509073018 69 355 0.0 0.0 0.01 0.01 0.01 95 1011.7
20260509071507 69 352 0.0 0.0 0.01 0.01 0.01 94 1011.6
20260509070009 69 355 0.0 2.0 0.01 0.01 0.01 93 1011.4
20260509064514 69 120 1.0 6.0 0.00 0.00 0.00 92 1011.0
20260509063018 70 119 1.0 7.0 0.00 0.00 0.00 91 1011.2
20260509061521 70 156 1.0 4.0 0.00 0.00 0.00 89 1011.8
20260509060008 70 148 0.0 4.0 0.00 0.00 0.00 89 1012.3
20260509054512 70 127 0.0 4.0 0.00 0.00 0.00 89 1012.3
20260509053027 70 136 0.0 0.0 0.00 0.00 0.00 88 1012.4
20260509051522 71 136 0.0 1.0 0.00 0.00 0.00 88 1012.1
20260509050042 71 155 0.0 2.0 0.00 0.00 0.00 88 1011.8
20260509044508 71 120 0.0 2.0 0.00 0.00 0.00 88 1011.5
20260509043023 71 144 0.0 1.0 0.00 0.00 0.00 88 1011.5
20260509041520 71 123 0.0 3.0 0.00 0.00 0.00 87 1011.4
20260509040022 71 134 1.0 4.0 0.00 0.00 0.00 87 1011.0
20260509034526 71 155 0.0 2.0 0.00 0.00 0.00 86 1011.1
20260509033008 71 156 0.0 3.0 0.00 0.00 0.00 86 1011.2
20260509031516 71 140 0.0 3.0 0.00 0.00 0.00 85 1011.2
20260509030022 71 138 0.0 5.0 0.00 0.00 0.00 86 1010.9
20260509024528 70 114 0.0 0.0 0.00 0.00 0.00 87 1010.9
20260509023028 70 114 0.0 0.0 0.00 0.00 0.00 86 1010.5
20260509021511 70 114 0.0 0.0 0.00 0.00 0.00 86 1010.4
20260509020021 70 114 0.0 0.0 0.00 0.00 0.00 86 1010.4
20260509014524 70 114 0.0 0.0 0.00 0.00 0.00 84 1009.9
20260509013028 71 114 0.0 0.0 0.00 0.00 0.00 82 1009.9
20260509011527 72 144 0.0 0.0 0.00 0.00 0.00 80 1009.4
20260509010033 73 119 0.0 4.0 0.00 0.00 0.00 79 1009.5
20260509004521 73 88 0.0 4.0 0.00 0.00 0.00 78 1009.6
20260509003024 74 78 0.0 4.0 0.00 0.00 0.00 77 1009.5
20260509001528 74 124 0.0 7.0 0.00 0.00 0.00 76 1009.2
20260509000039 75 117 3.0 12.0 0.00 0.00 0.00 75 1009.1
20260508234527 75 126 4.0 10.0 0.00 0.00 0.00 74 1009.5
20260508233022 76 171 2.0 10.0 0.00 0.00 0.00 72 1009.5
20260508231524 77 104 1.0 9.0 0.00 0.00 0.00 71 1009.7
20260508230025 76 156 2.0 7.0 0.00 0.00 0.00 71 1010.3
20260508224548 76 115 0.0 7.0 0.00 0.00 0.00 71 1010.7
20260508223003 76 28 0.0 1.0 0.00 0.00 0.00 80 1010.7
20260508221504 75 115 0.0 7.0 0.00 0.00 0.00 75 1010.3
20260508220009 74 113 3.0 5.0 0.00 0.00 0.00 78 1010.4
20260508214517 74 246 0.0 1.0 0.00 0.00 0.00 78 1011.3
20260508213028 75 231 0.0 0.0 0.00 0.00 0.00 79 1010.8
20260508211504 77 71 0.0 5.0 0.00 0.00 0.00 72 1010.8
20260508210004 78 300 0.0 0.0 0.00 0.00 0.00 62 1010.9
20260508204511 79 146 3.0 9.0 0.00 0.00 0.00 59 1010.8
20260508203016 79 94 1.0 10.0 0.00 0.00 0.00 60 1010.7
20260508201518 79 82 2.0 9.0 0.00 0.00 0.00 61 1011.1
20260508200037 79 262 1.0 9.0 0.00 0.00 0.00 61 1011.5
20260508194512 78 108 2.0 7.0 0.00 0.00 0.00 62 1011.7
20260508193009 78 146 1.0 7.0 0.00 0.00 0.00 60 1011.9
20260508191518 78 136 2.0 7.0 0.00 0.00 0.00 60 1012.0
20260508190024 78 115 0.0 10.0 0.00 0.00 0.00 60 1012.1
20260508184528 78 148 4.0 9.0 0.00 0.00 0.00 60 1012.2
20260508183008 76 130 1.0 6.0 0.00 0.00 0.00 61 1012.4
20260508181513 76 135 3.0 11.0 0.00 0.00 0.00 62 1012.8
20260508180018 75 173 2.0 6.0 0.00 0.00 0.00 65 1013.3
20260508174522 74 261 1.0 8.0 0.00 0.00 0.00 64 1013.3
20260508173028 73 87 0.0 8.0 0.00 0.00 0.00 67 1013.5
20260508171535 73 106 2.0 11.0 0.00 0.00 0.00 64 1013.8
20260508170016 72 186 2.0 6.0 0.00 0.00 0.00 68 1014.0
20260508164522 70 74 1.0 8.0 0.00 0.00 0.00 73 1014.6
20260508163005 70 118 5.0 8.0 0.00 0.00 0.00 69 1015.0
20260508161512 70 139 0.0 8.0 0.00 0.00 0.00 73 1015.2
20260508160014 69 107 2.0 6.0 0.00 0.00 0.00 72 1015.5
20260508154518 69 51 0.0 4.0 0.00 0.00 0.00 74 1015.5
20260508153025 69 144 2.0 9.0 0.00 0.00 0.00 74 1015.3
20260508151506 68 144 0.0 7.0 0.00 0.00 0.00 76 1015.4
20260508150019 68 156 1.0 11.0 0.00 0.00 0.00 76 1015.6
20260508144533 68 140 2.0 8.0 0.00 0.00 0.00 75 1015.7
20260508143028 67 128 2.0 7.0 0.00 0.00 0.00 77 1015.5
20260508141526 67 109 2.0 6.0 0.00 0.00 0.00 79 1015.5
20260508140034 66 54 1.0 7.0 0.00 0.00 0.00 83 1015.5
20260508134509 64 85 0.0 6.0 0.00 0.00 0.00 84 1015.3
20260508133019 62 146 0.0 2.0 0.00 0.00 0.00 89 1014.8
20260508131523 60 49 0.0 1.0 0.00 0.00 0.00 93 1014.6
20260508130007 58 92 0.0 0.0 0.00 0.00 0.00 95 1015.0
20260508124512 58 69 0.0 0.0 0.00 0.00 0.00 96 1015.2
20260508123013 57 88 0.0 0.0 0.00 0.00 0.00 96 1015.3
20260508121523 56 292 0.0 0.0 0.00 0.00 0.00 96 1014.8
20260508120024 56 150 0.0 0.0 0.00 0.00 0.00 97 1014.9
20260508114523 55 148 0.0 0.0 0.00 0.00 0.00 96 1015.2
20260508113013 55 148 0.0 0.0 0.00 0.00 0.00 96 1015.2
20260508111514 55 148 0.0 0.0 0.00 0.00 0.00 96 1015.3
20260508110019 55 148 0.0 0.0 0.00 0.00 0.00 96 1015.6
20260508104522 55 148 0.0 0.0 0.00 0.00 0.00 96 1015.8
20260508103008 56 148 0.0 0.0 0.00 0.00 0.00 95 1015.8
20260508101512 56 148 0.0 0.0 0.00 0.00 0.00 95 1015.9
20260508100027 56 148 0.0 0.0 0.00 0.00 0.00 95 1015.8